Home > Weather > Pomona > Past weeks

Flag for USA Past Weather in Pomona, California, USA — Yesterday and Last 2 Weeks

Now
98 °F

Passing clouds.


Feels Like: 97 °F
Forecast: 69 / 99 °F
Wind: 5 mph from Southwest

Location: Chino Airport

Current Time: Jul 29, 2016 at 12:54:36 PM

Latest Report: Jul 29, 2016 at 11:53 AM


Visibility: 10 mi

Pressure: 29.81 "Hg

Humidity: 25%

Dew Point: 57 °F

Location of PomonaLocation

Past Weather in Pomona — Graph

°F

Pomona Temperature Yesterday

Maximum temperature yesterday: 99 °F (at 2:53 PM)
Minimum temperature yesterday: 68 °F (at 4:53 AM)
Average temperature yesterday: 83 °F

High & Low Weather Summary for the Past Weeks

 TemperatureHumidityPressure
High109 °F (Jul 22, 2:53 PM)90% (Jul 16, 4:53 AM)30.03 "Hg (Jul 16, 4:53 AM)
Low61 °F (Jul 15, 5:53 AM)8% (Jul 21, 12:53 PM)29.76 "Hg (Jul 23, 1:53 PM)
Average81 °F46%29.90 "Hg
* Reported Jul 14 10:53 AM — Jul 29 10:53 AM, Pomona, Weather by CustomWeather, © 2016

Note: Actual official high and low records may vary slightly from our data, if they occured in-between our weather recording intervals... More about our weather records

Advertising

Pomona Weather History for the Previous 24 Hours

Scroll right to see more
 ConditionsComfort  
Time TempWeatherWind HumidityBarometerVisibility
10:53 AM
Fri, Jul 29
92 °FSunny.5 mph29%29.83 "Hg10 mi
9:53 AM87 °FSunny.3 mph36%29.83 "Hg10 mi
8:53 AM82 °FSunny.No wind44%29.85 "Hg10 mi
7:53 AM77 °FSunny.No wind52%29.85 "Hg8 mi
6:53 AM72 °FClear.No wind57%29.84 "Hg7 mi
5:53 AM69 °FClear.No wind63%29.83 "Hg6 mi
4:53 AM70 °FClear.No wind61%29.82 "Hg7 mi
3:53 AM70 °FClear.No wind57%29.82 "Hg6 mi
2:53 AM74 °FClear.No wind46%29.82 "Hg8 mi
1:53 AM73 °FClear.No wind55%29.83 "Hg8 mi
12:53 AM74 °FClear.No wind53%29.84 "Hg8 mi
11:53 PM
Thu, Jul 28
75 °FClear.No wind52%29.85 "Hg8 mi
10:53 PM77 °FClear.No wind47%29.84 "Hg6 mi
9:53 PM78 °FClear.8 mph40%29.84 "Hg9 mi
8:53 PM80 °FClear.8 mph38%29.83 "Hg9 mi
7:53 PM83 °FPassing clouds.12 mph32%29.82 "Hg10 mi
6:53 PM88 °FSunny.15 mph26%29.80 "Hg8 mi
5:53 PM93 °FPassing clouds.15 mph23%29.79 "Hg10 mi
4:53 PM96 °FPassing clouds.14 mph23%29.79 "Hg10 mi
3:53 PM98 °FPassing clouds.12 mph20%29.80 "Hg10 mi
2:53 PM99 °FPassing clouds.7 mph21%29.82 "Hg10 mi
1:53 PM98 °FPassing clouds.9 mph22%29.84 "Hg10 mi
12:53 PM98 °FPassing clouds.9 mph19%29.86 "Hg10 mi
Weather by CustomWeather, © 2016

See weather overviewHow to use our weather pages